Regional Weather Roundup
Issued by NWS

Home | Current Version | Previous Version | Text Only | Print | Product List | Glossary On
Versions: 1 2 3 4 5 6 7 8 9 10 11 12 13 14 15 16 17 18 19 20 21 22 23 24 25 26 27 28 29 30 31 32 33 34 35 36 37 38 39 40 41 42 43 44 45 46 47 48 49 50
000
ASUS43 KBIS 252159
RWRND

NORTH DAKOTA REGIONAL WEATHER ROUNDUP
NATIONAL WEATHER SERVICE BISMARCK ND
500 PM CDT FRI JUL 25 2014

NOTE: "FAIR" INDICATES FEW OR NO CLOUDS BELOW 12,000 FEET WITH NO
SIGNIFICANT WEATHER AND/OR OBSTRUCTIONS TO VISIBILITY.


NDZ001>003-009>011-017-252300-
NORTHWEST NORTH DAKOTA

CITY           SKY/WX    TMP DP  RH WIND       PRES   REMARKS
WILLISTON      SUNNY     84  36  18 W17G28    29.75F
MINOT          SUNNY     79  46  31 SW13G22   29.77F
$$

NDZ018>021-031>035-040>046-252300-
SOUTHWEST NORTH DAKOTA

CITY           SKY/WX    TMP DP  RH WIND       PRES   REMARKS
BISMARCK       SUNNY     82  47  29 NW7       29.82F
DICKINSON      SUNNY     82  46  28 S12       29.81F
GARRISON         N/A     77  54  44 W5        29.81F
HETTINGER ARPT SUNNY     82  45  27 SW8       29.86F
$$

NDZ004>008-012>016-024-026-027-054-252300-
NORTHEAST NORTH DAKOTA

CITY           SKY/WX    TMP DP  RH WIND       PRES   REMARKS
GRAND FORKS    MOSUNNY   81  54  39 NW13      29.73S
DEVILS LAKE    SUNNY     79  54  41 W14       29.76S
$$

NDZ022-023-025-028>030-036>039-047>053-252300-
SOUTHEAST NORTH DAKOTA

CITY           SKY/WX    TMP DP  RH WIND       PRES   REMARKS
FARGO          SUNNY     81  67  62 NW6       29.75S
$$




USA.gov is the U.S. government's official web portal to all federal, state and local government web resources and services.